• In Uzbekistan
  • List of Countries
  • For 7 days
  • Water Temperature
  • Satellite Maps
  • Weather Map
  • Weather Widgets
  • user-avatar
    Login

    Hourly Weather Shaki

    Today, 17 November, Friday

    Time Temperature Precipitation Wind Pressure Humidity
    00:00 +12°C° 0 mm 1 mps 741 mmHg 53%
    01:00 +12°C° 0 mm 1 mps 741 mmHg 56%
    02:00 +11°C° 0 mm 1 mps 741 mmHg 60%
    03:00 +11°C° 0 mm 1 mps 741 mmHg 58%
    04:00 +11°C° 0 mm 1 mps 741 mmHg 60%
    05:00 +11°C° 0 mm 1 mps 741 mmHg 61%
    06:00 +9°C° 0 mm 0 mps 741 mmHg 63%
    07:00 +10°C° 0 mm 0 mps 741 mmHg 61%
    08:00 +13°C° 0 mm 1 mps 741 mmHg 59%
    09:00 +14°C° 0 mm 1 mps 741 mmHg 57%
    10:00 +14°C° 0 mm 1 mps 741 mmHg 56%
    11:00 +15°C° 0 mm 1 mps 741 mmHg 56%
    12:00 +16°C° 0 mm 1 mps 740 mmHg 55%
    13:00 +16°C° 0 mm 2 mps 740 mmHg 56%
    14:00 +16°C° 0 mm 2 mps 740 mmHg 57%
    15:00 +15°C° 0 mm 2 mps 740 mmHg 60%
    16:00 +14°C° 0 mm 2 mps 741 mmHg 67%
    17:00 +13°C° 0 mm 2 mps 741 mmHg 73%
    18:00 +12°C° 0 mm 2 mps 741 mmHg 80%
    19:00 +12°C° 0 mm 2 mps 741 mmHg 81%
    20:00 +12°C° 0 mm 2 mps 741 mmHg 83%
    21:00 +10°C° 0 mm 2 mps 741 mmHg 85%
    22:00 +10°C° 0 mm 2 mps 742 mmHg 86%
    23:00 +10°C° 0 mm 2 mps 742 mmHg 86%

    Tomorrow, 18 November, Saturday

    Time Temperature Precipitation Wind Pressure Humidity
    00:00 +10°C° 0 mm 2 mps 742 mmHg 86%
    01:00 +11°C° 0 mm 1 mps 742 mmHg 85%
    02:00 +11°C° 0 mm 1 mps 742 mmHg 83%
    03:00 +11°C° 0 mm 1 mps 741 mmHg 82%
    04:00 +11°C° 0 mm 1 mps 741 mmHg 79%
    05:00 +11°C° 0 mm 1 mps 741 mmHg 76%
    06:00 +11°C° 0 mm 1 mps 741 mmHg 74%
    07:00 +11°C° 0 mm 1 mps 741 mmHg 69%
    08:00 +12°C° 0 mm 1 mps 741 mmHg 65%
    09:00 +13°C° 0 mm 1 mps 741 mmHg 61%
    10:00 +13°C° 0 mm 1 mps 741 mmHg 59%
    11:00 +14°C° 0 mm 1 mps 740 mmHg 58%
    12:00 +14°C° 0 mm 1 mps 740 mmHg 56%
    13:00 +15°C° 0 mm 2 mps 739 mmHg 56%
    14:00 +15°C° 0 mm 2 mps 739 mmHg 56%
    15:00 +15°C° 0 mm 2 mps 739 mmHg 55%
    16:00 +14°C° 0 mm 1 mps 739 mmHg 59%
    17:00 +12°C° 0 mm 1 mps 739 mmHg 62%
    18:00 +11°C° 0 mm 1 mps 739 mmHg 65%
    19:00 +11°C° 0 mm 1 mps 739 mmHg 64%
    20:00 +11°C° 0 mm 1 mps 739 mmHg 63%
    21:00 +11°C° 0 mm 1 mps 739 mmHg 62%
    22:00 +11°C° 0 mm 1 mps 738 mmHg 61%
    23:00 +10°C° 0 mm 1 mps 738 mmHg 60%

    Day after tomorrow, 19 November, Sunday

    Time Temperature Precipitation Wind Pressure Humidity
    00:00 +10°C° 0 mm 1 mps 738 mmHg 59%
    01:00 +10°C° 0 mm 1 mps 738 mmHg 57%
    02:00 +9°C° 0 mm 2 mps 738 mmHg 56%
    03:00 +9°C° 0 mm 2 mps 738 mmHg 54%
    04:00 +9°C° 0 mm 2 mps 737 mmHg 53%
    05:00 +9°C° 0 mm 2 mps 737 mmHg 51%
    06:00 +9°C° 0 mm 2 mps 737 mmHg 50%
    07:00 +12°C° 0 mm 1 mps 737 mmHg 46%
    08:00 +13°C° 0 mm 1 mps 737 mmHg 43%
    09:00 +14°C° 0 mm 1 mps 737 mmHg 40%
    10:00 +16°C° 0 mm 1 mps 736 mmHg 37%
    11:00 +17°C° 0 mm 2 mps 736 mmHg 34%
    12:00 +18°C° 0 mm 2 mps 735 mmHg 30%
    13:00 +18°C° 0 mm 2 mps 735 mmHg 31%
    14:00 +18°C° 0 mm 2 mps 735 mmHg 31%
    15:00 +19°C° 0 mm 1 mps 734 mmHg 31%
    16:00 +18°C° 0 mm 1 mps 734 mmHg 33%
    17:00 +15°C° 0 mm 1 mps 734 mmHg 35%
    18:00 +14°C° 0 mm 1 mps 734 mmHg 37%
    19:00 +14°C° 0 mm 1 mps 734 mmHg 37%
    20:00 +14°C° 0 mm 1 mps 734 mmHg 37%
    21:00 +14°C° 0 mm 1 mps 734 mmHg 37%
    22:00 +13°C° 0 mm 2 mps 734 mmHg 39%
    23:00 +13°C° 0 mm 2 mps 734 mmHg 40%

    20 November, Monday

    Time Temperature Precipitation Wind Pressure Humidity
    00:00 +13°C° 0 mm 2 mps 733 mmHg 41%
    01:00 +13°C° 0 mm 2 mps 733 mmHg 42%
    02:00 +13°C° 0 mm 2 mps 733 mmHg 43%
    03:00 +12°C° 0 mm 3 mps 733 mmHg 44%
    04:00 +12°C° 0 mm 3 mps 733 mmHg 44%
    05:00 +12°C° 0 mm 3 mps 733 mmHg 44%
    06:00 +12°C° 0 mm 3 mps 733 mmHg 44%
    07:00 +13°C° 0 mm 3 mps 733 mmHg 41%
    08:00 +14°C° 0 mm 3 mps 733 mmHg 38%
    09:00 +17°C° 0 mm 3 mps 733 mmHg 35%
    10:00 +18°C° 0 mm 4 mps 733 mmHg 32%
    11:00 +19°C° 0 mm 4 mps 733 mmHg 30%
    12:00 +20°C° 0 mm 4 mps 732 mmHg 27%
    13:00 +20°C° 0 mm 4 mps 732 mmHg 27%
    14:00 +20°C° 0 mm 4 mps 732 mmHg 27%
    15:00 +20°C° 0 mm 3 mps 732 mmHg 27%
    16:00 +18°C° 0 mm 3 mps 732 mmHg 30%
    17:00 +17°C° 0 mm 3 mps 732 mmHg 33%
    18:00 +14°C° 0 mm 3 mps 732 mmHg 36%
    19:00 +14°C° 0 mm 3 mps 732 mmHg 38%
    20:00 +15°C° 0 mm 2 mps 732 mmHg 39%
    21:00 +15°C° 0 mm 2 mps 732 mmHg 41%
    22:00 +14°C° 0 mm 2 mps 732 mmHg 42%
    23:00 +14°C° 0 mm 2 mps 732 mmHg 42%

    21 November, Tuesday

    Time Temperature Precipitation Wind Pressure Humidity
    00:00 +14°C° 0 mm 2 mps 732 mmHg 43%
    01:00 +14°C° 0 mm 2 mps 731 mmHg 43%
    02:00 +13°C° 0 mm 2 mps 731 mmHg 42%
    03:00 +13°C° 0 mm 2 mps 731 mmHg 42%
    04:00 +13°C° 0 mm 2 mps 731 mmHg 43%
    05:00 +13°C° 0 mm 2 mps 731 mmHg 43%
    06:00 +13°C° 0 mm 2 mps 731 mmHg 43%
    07:00 +14°C° 0 mm 2 mps 730 mmHg 41%
    08:00 +15°C° 0 mm 2 mps 730 mmHg 39%
    09:00 +16°C° 0 mm 2 mps 730 mmHg 37%
    10:00 +18°C° 0 mm 2 mps 730 mmHg 34%
    11:00 +19°C° 0 mm 2 mps 729 mmHg 31%
    12:00 +20°C° 0 mm 3 mps 729 mmHg 28%
    13:00 +20°C° 0 mm 3 mps 729 mmHg 29%
    14:00 +19°C° 0 mm 3 mps 728 mmHg 29%
    15:00 +19°C° 0 mm 2 mps 728 mmHg 30%
    16:00 +18°C° 0 mm 2 mps 728 mmHg 31%
    17:00 +17°C° 0 mm 2 mps 728 mmHg 33%
    18:00 +16°C° 0 mm 2 mps 728 mmHg 34%
    19:00 +16°C° 0 mm 2 mps 728 mmHg 34%
    20:00 +15°C° 0 mm 2 mps 728 mmHg 34%
    21:00 +15°C° 0 mm 2 mps 728 mmHg 34%
    22:00 +15°C° 0 mm 2 mps 728 mmHg 35%
    23:00 +15°C° 0 mm 2 mps 728 mmHg 35%

    22 November, Wednesday

    Time Temperature Precipitation Wind Pressure Humidity
    00:00 +14°C° 0 mm 2 mps 728 mmHg 36%
    01:00 +14°C° 0 mm 2 mps 728 mmHg 36%
    02:00 +14°C° 0 mm 2 mps 728 mmHg 37%
    03:00 +14°C° 0 mm 2 mps 728 mmHg 38%
    04:00 +14°C° 0 mm 2 mps 729 mmHg 38%
    05:00 +14°C° 0 mm 2 mps 729 mmHg 38%
    06:00 +13°C° 0 mm 2 mps 729 mmHg 38%
    07:00 +14°C° 0 mm 2 mps 729 mmHg 37%
    08:00 +15°C° 0 mm 2 mps 729 mmHg 36%
    09:00 +16°C° 0 mm 2 mps 730 mmHg 35%
    10:00 +17°C° 0 mm 2 mps 730 mmHg 33%
    11:00 +18°C° 0 mm 2 mps 729 mmHg 31%
    12:00 +18°C° 0 mm 2 mps 729 mmHg 28%
    13:00 +18°C° 0 mm 2 mps 729 mmHg 30%
    14:00 +18°C° 0 mm 2 mps 729 mmHg 32%
    15:00 +17°C° 0 mm 2 mps 730 mmHg 34%
    16:00 +16°C° 0 mm 2 mps 730 mmHg 38%
    17:00 +15°C° 0 mm 2 mps 730 mmHg 42%
    18:00 +14°C° 0 mm 1 mps 731 mmHg 47%
    19:00 +14°C° 0.1 mm 1 mps 731 mmHg 51%
    20:00 +13°C° 0.1 mm 1 mps 731 mmHg 56%
    21:00 +13°C° 0.1 mm 1 mps 732 mmHg 61%
    22:00 +13°C° 0.2 mm 2 mps 732 mmHg 64%
    23:00 +12°C° 0.2 mm 2 mps 732 mmHg 67%
    Show more